User: anonymous   Login
Location: Burgwalden
(48.2830°N, 10.7576°E)
Time: 17:10:12
(UTC+00:00)
Language:

YAOGAN 11 - Orbit

View from above orbital plane
View from above orbital plane
View from above satellite
View from above satellite

Ground track
Ground track

The orbit data is extracted from the following two-line orbital elements,

1 37165U 10047A   24061.48667053  .00001194  00000-0  16938-3 0  9991
2 37165  98.4273 235.1211 0037827  46.2970 314.1363 14.78577095724138
Epoch (UTC): 01 March 2024 11:40:48
Eccentricity: 0.0037827
inclination: 98.4273°
perigee height: 607 km
apogee height: 660 km
right ascension of ascending node: 235.1211°
argument of perigee: 46.2970°
revolutions per day: 14.78577095
mean anomaly at epoch: 314.1363°
orbit number at epoch: 72413

The dashed part of the orbit path shows where the satellite is in the earth's shadow,  

DLR